Regional Weather Roundup
Issued by NWS Upton, NY

Current Version | Previous Version | Text Only | Print | Product List | Glossary On
Versions: 1 2 3 4 5 6 7 8 9 10 11 12 13 14 15 16 17 18 19 20 21 22 23 24 25 26 27 28 29 30 31 32 33 34 35 36 37 38 39 40 41 42 43 44 45 46 47 48 49 50
000
ASUS41 KOKX 271709
RWROKX

REGIONAL WEATHER ROUNDUP
NATIONAL WEATHER SERVICE NEW YORK NY
100 PM EDT SAT MAY 27 2017

NOTE: "FAIR" INDICATES FEW OR NO CLOUDS BELOW 12,000 FEET WITH NO
SIGNIFICANT WEATHER AND/OR OBSTRUCTIONS TO VISIBILITY.

NYZ071-072-176-178-NJZ106-104-271800-
NEW YORK CITY METRO AREA

CITY           SKY/WX    TMP DP  RH WIND       PRES   REMARKS
Central Park   CLOUDY    69  55  60 W3        29.89F
Wall St Helipt CLOUDY    68  55  64 SW6       29.89R
Bronx Bot Gard   N/A     70  52  52 E3        29.88F
LaGuardia APRT PTSUNNY   72  53  51 VRB3      29.86S
Kennedy INTL   CLOUDY    69  57  65 SW14      29.88S
Breezy Point     N/A     64 N/A N/A SW6         N/A
Newark/Liberty PTSUNNY   70  55  59 E8        29.86F
Teterboro      CLOUDY    70  54  56 W6        29.86S
$$

NYZ177-179-078>081-271800-
LONG ISLAND NEW YORK

CITY           SKY/WX    TMP DP  RH WIND       PRES   REMARKS
Jones Beach      N/A     64 N/A N/A SW5         N/A
Matinecock PT  NOT AVBL
Farmingdale    CLOUDY    66  56  70 S12       29.88R
MacArthur/ISP  PTSUNNY   67  56  67 S12       29.87S
Shirley        CLOUDY    64  56  75 S7        29.89R
Mt Sinai Harb    N/A    N/A N/A N/A E7          N/A
Westhampton    CLOUDY    64  52  64 W9        29.91R
East Hampton   PTSUNNY   64  49  59 N5        29.89S
Montauk          N/A     62  49  62 NW8       29.91R
$$

NYZ052-065-067-271800-
HUDSON VALLEY

CITY           SKY/WX    TMP DP  RH WIND       PRES   REMARKS
White Plains   PTSUNNY   69  52  54 W6        29.86S
Larchmont Harb   N/A     66 N/A N/A SE6         N/A
Croton O-T Hud   N/A     70 N/A N/A SW1         N/A
Newburgh       PTSUNNY   68  57  68 CALM      29.88F
Montgomery     CLOUDY    69  54  58 SW6       29.86S
Poughkeepsie   PTSUNNY   68  54  60 CALM      29.86F
Albany         PTSUNNY   66  50  56 N8        29.90S
$$

NJZ001-105-106-008-010-013-015-019>022-104-271800-
NEW JERSEY

CITY           SKY/WX    TMP DP  RH WIND       PRES   REMARKS
Newark/Liberty PTSUNNY   70  55  59 E8        29.86F
Teterboro      CLOUDY    70  54  56 W6        29.86S
Caldwell       CLOUDY    72  53  51 W6        29.87F
Somerville     CLOUDY    72  56  57 CALM      29.86S
Linden         CLOUDY    72  55  55 W7        29.87S
Perth Amboy      N/A     68 N/A N/A W6          N/A
Sussex         CLOUDY    70  55  59 W3        29.89R
Andover          N/A     69  54  58 NW3       29.89R
Trenton        PTSUNNY   71  56  58 VRB3      29.88S
Millville      CLOUDY    73  54  51 W10       29.90S
Atlantic City  CLOUDY    73  52  47 W10       29.89F
Wrightstown    PTSUNNY   72  56  56 SW5       29.86F
Toms River     PTSUNNY   73  59  61 S6        29.89S
Belmar         PTSUNNY   72  54  53 W8        29.90R
$$

PAZ047>061-062-071-271800-
EASTERN PENNSYLVANIA

CITY           SKY/WX    TMP DP  RH WIND       PRES   REMARKS
Philadelphia   CLOUDY    73  52  47 SW10      29.89F
Allentown      MOSUNNY   70  54  56 W5        29.89S
Scranton       CLOUDY    66  55  67 SW7       29.90F
$$

CTZ002-004>006-009-010-012-RIZ004-006-007-MAZ004-011-015-271800-
SOUTHERN NEW ENGLAND
 IN CT

CITY           SKY/WX    TMP DP  RH WIND       PRES   REMARKS
Bradley INTL   PTSUNNY   65  48  54 VRB6      29.89R
Hartford       PTSUNNY   64  49  57 NE6       29.88S
Danbury        PTSUNNY   67  54  63 VRB6      29.89S
Wtrbury/Oxford PTSUNNY   64  46  52 N9        29.89R
Bridgeport     CLOUDY    65  52  62 SE10      29.88R
Meriden        PTSUNNY   67  51  56 VRB7      29.88S
New Haven      CLOUDY    62  55  77 S10       29.88R
Chester        CLOUDY    63  48  59 NW8       29.89S
Groton         CLOUDY    63  49  60 N8        29.88R
Wilimantic     PTSUNNY   65  50  58 VRB3      29.88S

 IN RI

CITY           SKY/WX    TMP DP  RH WIND       PRES   REMARKS
Providence     PTSUNNY   66  51  58 NW5       29.87S
Block Island   CLOUDY    62  50  64 NW8       29.89R
Westerly       CLOUDY    65  50  58 CALM      29.89R
 IN MA

CITY           SKY/WX    TMP DP  RH WIND       PRES   REMARKS
Boston         MOSUNNY   58  51  78 E13       29.88R
Worcester      MOSUNNY   65  45  48 VRB7      29.87S
Westfield      MOSUNNY   65  50  58 CALM      29.87F
Provincetown   SUNNY     57  50  77 NE12      29.89R
Nantucket      PTSUNNY   61  48  62 NW9       29.88R
$$

ANZ330-335-338-340-345-350-353-355-271800-
COASTAL MARINE OBSERVATIONS


STATION/POSITION TIME  SKY/WX   TEMP    WIND        PRES    VSBY  WAVE
                                AIR SEA DIR/SP/G                  HT/PER
                 (UTC)          (F)     (DEG/KT/KT) (MB)    (MI)  (FT/S)
NY HARB ENTRANCE 1550            62 59  230/  6/  6 1012.1          2/ 8
20 S FIRE ISLAND 1650            59 58  220/  6/  6 1011.8          3/ 8
GREAT SOUTH BAY  NOT AVBL
23 SSW MONTAUK P 1550            59 56              1012.5          4/ 7
15 E BARNEGAT LI 1630               62                N/A           3/ 8
HUDSON CANYON    1650            59 58  270/  4/  6 1012.6          3/ 6
KINGS POINT      1642            69 58  280/  1/  1 1011.2
EXECUTION ROCKS  1645            67                   N/A
CENTRAL LI SOUND NOT AVBL
EASTERN LI SOUND NOT AVBL
ROBBINS REEF     1642            67     160/ 10/ 11 1012.1
$$


>>>>>>>>>>>>>>>>>>>>>>>>>>>> KEY <<<<<<<<<<<<<<<<<<<<<<<<<<<
>                                                          <
>     SKY/WX - Sky Condition/Present Weather               <
>     TMP    - Temperature in Fahrenheit                   <
>     DP     - Dew Point in Fahrenheit                     <
>     RH     - Relative Humidity in Percent                <
>     WIND   - Direction (from) and Speed in MPH           <
>     PRES   - Mean Sea Level Pressure (inches of Hg)      <
>     WCI    - Wind Chill Index                            <
>     VSB    - VISIBILITY IN MILES                         <
>     HX     - HEAT INDEX                                  <
>     TC     - TEMPERATURE IN CELSIUS                      <
>     VRB    - VARIABLE WIND DIRECTION                     <
>                                                          <
>>>>>>>>>>>>>>>>>>>>>>>>>>>> KEY <<<<<<<<<<<<<<<<<<<<<<<<<<<



USA.gov is the U.S. government's official web portal to all federal, state and local government web resources and services.